Theta_e
320 321 321 322 322 322 322 320 320 319 319 319 321 320 323 329 331 332 332 332 329 325 326 328 330 331 332 331 328 329 330 330 331 331 330 330 329 328 327 325 325 323 320
313 314 315 316 317 318 319 319 320 320 318 317 316 316 317 317 320 325 330 332 331 326 325 324 324 325 328 330 333 329 328 330 331 331 330 330 329 329 325 325 325 322 322
309 310 310 311 311 312 312 314 316 319 319 320 320 320 319 318 316 315 317 323 330 330 329 329 329 329 328 328 328 331 330 328 330 331 331 331 330 328 325 326 325 323 323
310 310 311 311 312 312 312 312 313 314 314 313 313 313 317 318 318 317 317 319 319 321 324 324 324 324 323 326 328 327 330 330 328 329 331 332 331 328 325 326 325 323 323
309 310 311 312 312 312 312 313 314 315 314 314 313 312 312 311 313 317 317 317 318 319 317 314 317 321 322 323 323 326 326 327 329 329 330 330 330 329 327 326 325 323 324
308 309 310 311 311 312 312 312 312 312 313 313 313 312 311 311 312 312 314 317 317 316 314 315 316 319 320 319 321 322 326 328 327 327 328 329 329 329 328 327 325 323 323
307 307 307 309 310 310 311 311 311 311 311 311 311 311 310 313 313 312 313 314 313 313 315 317 315 318 319 321 321 320 320 324 327 327 327 328 328 328 328 328 326 324 324
306 306 306 306 306 307 308 309 309 309 310 309 309 309 309 310 313 310 311 315 317 317 317 318 316 317 319 320 319 318 316 318 321 324 325 326 327 328 329 328 327 326 324
306 306 305 306 306 306 306 306 306 307 307 308 308 309 308 309 309 310 310 312 311 312 314 314 314 317 316 316 316 316 317 318 319 320 323 324 324 325 326 327 327 325 325
306 305 305 304 304 305 305 305 304 305 305 306 307 308 307 307 309 309 311 310 310 312 313 312 311 312 313 314 315 316 315 315 315 317 320 321 323 323 324 324 327 328 326
305 305 304 304 304 304 304 304 304 304 304 303 304 305 305 305 307 309 310 309 310 310 311 310 310 310 312 312 314 315 316 315 314 314 317 318 320 320 320 323 324 325 324
304 304 304 303 303 302 303 303 303 303 303 303 303 303 303 305 307 307 308 308 309 311 311 310 308 309 309 309 309 313 316 315 314 314 313 317 318 319 320 320 322 323 324
303 303 303 302 302 302 302 302 302 303 303 303 302 302 302 302 302 303 306 307 308 310 310 309 308 308 311 310 311 313 314 314 313 313 312 315 316 315 315 316 317 319 320
302 302 302 302 301 301 301 300 301 301 301 301 302 302 302 302 302 303 305 307 308 308 308 308 308 308 310 309 309 310 311 312 311 311 310 310 311 312 313 315 315 316 316
301 300 300 300 300 300 299 299 299 300 300 300 301 301 301 302 302 303 304 305 306 308 308 308 308 309 309 308 308 309 309 309 309 309 308 308 309 310 312 314 314 314 316
299 299 299 299 298 298 298 298 299 299 300 300 300 301 302 302 303 304 304 305 306 306 307 308 308 307 307 307 307 309 309 308 308 308 308 308 308 307 309 312 314 314 314
298 297 297 297 297 297 298 298 299 299 300 300 300 300 301 302 303 304 304 305 306 306 306 306 307 307 307 307 307 308 308 307 307 306 306 306 306 306 307 310 312 313 315
298 297 296 296 297 297 298 298 298 299 299 299 300 301 302 303 304 304 305 306 306 306 307 307 307 306 307 306 305 305 306 305 304 304 305 304 304 304 304 306 308 308 313
297 296 296 297 297 297 298 298 298 298 299 299 300 301 302 303 304 304 304 304 305 305 306 306 306 306 306 306 305 305 304 302 301 301 302 302 301 300 301 301 304 304 301
297 296 296 296 297 297 298 298 298 298 299 299 300 300 300 301 300 300 300 300 301 302 303 304 305 305 304 303 302 300 299 298 299 298 298 299 299 298 298 298 299 299 298
297 296 296 297 297 297 297 297 298 298 298 299 299 299 298 298 298 297 297 297 297 298 299 301 302 300 299 298 297 297 296 296 295 296 296 297 296 296 295 295 295 295 297
296 296 296 295 295 295 296 297 297 298 298 298 297 297 297 297 296 295 295 295 295 296 297 298 296 296 294 294 294 294 294 294 293 293 294 294 293 293 293 293 292 293 294
296 295 295 295 294 294 295 295 296 296 297 297 297 296 296 296 296 296 295 295 294 294 294 294 293 293 292 293 293 293 293 292 291 291 292 291 291 291 291 291 291 290 289
296 295 294 294 293 293 294 294 294 294 295 295 295 295 295 294 294 294 295 294 294 293 293 293 293 292 292 293 294 293 293 291 289 286 289 290 286 287 286 287 286 287 288
295 295 294 293 292 292 293 293 293 293 294 294 294 293 292 293 292 294 295 293 291 290 292 292 291 292 291 288 287 288 288 291 288 285 286 285 286 286 287 287 287 286 287
294 294 293 293 292 291 292 292 292 292 292 292 292 290 289 289 289 289 289 288 287 286 287 287 286 285 285 286 286 286 287 287 285 284 285 285 285 285 287 286 285 284 285
Wind_Speed
8 7 5 3 3 2 1 3 5 4 4 4 4 4 7 8 8 9 10 11 9 10 11 9 8 8 9 11 12 14 15 15 15 18 20 21 18 16 15 13 12 11 11
5 4 3 2 0 2 3 5 5 6 6 6 6 7 7 6 8 8 7 8 10 12 11 10 11 10 10 12 13 14 15 16 16 17 21 22 20 18 17 15 14 13 14
4 4 3 1 2 3 4 4 4 5 6 7 8 7 8 9 9 9 10 12 11 11 12 12 12 13 14 15 14 16 16 17 18 18 21 23 22 21 19 17 16 15 16
5 3 3 3 3 4 4 3 3 4 5 7 10 11 13 13 12 11 11 11 11 12 13 13 14 13 16 16 15 16 18 19 19 22 24 25 25 23 22 20 18 18 19
5 4 4 4 5 5 5 4 3 3 5 8 9 11 12 15 16 16 15 12 12 11 14 14 13 13 12 12 15 15 18 18 21 23 25 27 28 27 25 22 21 21 22
5 4 4 4 4 4 4 6 6 5 7 9 13 15 15 12 11 13 17 17 16 15 15 14 15 13 14 13 13 15 15 17 19 21 24 25 29 30 28 26 24 24 24
5 4 4 4 4 4 6 6 6 7 7 10 12 13 11 4 8 11 11 7 12 12 9 10 13 11 11 11 11 13 14 14 15 17 21 23 26 29 31 30 28 25 28
7 6 6 5 4 3 3 5 7 5 4 8 6 5 3 4 3 11 11 10 6 1 4 6 11 7 8 8 11 14 16 17 17 15 15 17 21 26 30 33 35 31 31
7 9 9 9 8 7 7 6 7 7 5 5 8 2 2 2 8 4 14 8 15 13 10 11 11 8 9 12 13 15 16 16 16 17 17 17 19 20 23 28 27 35 35
5 6 8 8 8 7 7 8 7 6 5 4 4 2 4 5 2 4 5 20 16 12 10 13 14 13 14 17 16 15 14 14 15 16 17 18 18 19 20 23 30 35 42
3 3 6 6 6 6 6 7 7 8 7 6 6 7 9 13 11 6 4 4 18 18 17 17 18 15 14 15 15 14 14 15 16 17 15 17 18 20 23 24 25 28 30
0 3 4 6 7 6 7 7 8 8 8 8 7 7 7 4 7 5 3 9 11 13 15 18 16 15 15 15 15 15 15 17 19 18 18 17 18 19 19 20 22 23 26
2 3 4 7 7 7 8 10 10 9 8 10 10 11 11 13 15 18 14 11 7 8 9 16 15 11 8 12 11 11 13 16 16 17 18 18 18 19 23 22 24 26 27
1 3 7 8 8 9 11 11 10 10 11 12 14 14 14 14 15 15 15 11 7 5 8 15 15 10 8 13 16 12 12 15 17 18 20 19 20 21 21 21 22 24 26
3 7 9 8 9 9 9 9 11 12 11 14 15 15 16 15 15 14 15 15 11 4 3 6 5 5 10 17 17 16 15 15 16 15 17 17 18 21 22 20 18 20 21
6 11 7 7 8 9 9 10 11 11 13 13 13 14 15 15 15 16 16 17 17 13 4 4 10 20 17 17 16 15 16 15 13 16 21 19 20 22 22 20 19 19 19
7 9 8 8 10 12 11 12 12 13 12 13 14 16 17 17 19 18 17 16 17 16 9 15 13 18 15 16 16 15 16 15 16 17 17 16 17 17 17 17 19 20 19
6 7 8 11 13 13 13 14 14 12 14 18 17 15 15 15 15 16 16 16 14 13 11 9 17 18 18 20 17 16 14 12 14 12 9 12 11 14 14 14 12 12 16
7 7 10 11 12 13 14 12 11 15 16 16 14 13 12 9 10 10 9 11 14 15 13 13 11 16 18 14 14 12 11 11 8 7 7 4 8 11 9 13 14 11 16
10 10 10 11 13 15 12 12 16 16 16 13 11 10 8 6 7 8 8 9 10 10 11 13 15 14 7 6 7 7 6 5 4 4 6 6 6 8 12 13 13 11 14
8 11 12 13 13 14 11 15 15 14 13 10 7 6 5 3 4 7 9 10 10 9 9 9 5 2 3 4 4 4 4 6 4 5 5 5 6 9 10 10 11 10 10
6 9 11 12 13 13 11 13 11 10 8 7 6 5 5 4 4 6 7 12 13 9 4 3 4 4 6 5 4 4 5 4 3 7 5 6 9 9 8 7 7 8 5
8 8 9 12 12 12 11 12 9 6 4 5 5 4 5 6 7 7 9 12 17 19 18 15 15 9 7 8 5 6 7 5 4 6 5 6 10 10 9 8 9 10 12
8 9 9 10 12 11 11 11 7 4 4 5 5 5 5 5 5 5 9 15 18 19 18 18 19 18 16 15 15 11 9 10 9 12 7 3 8 7 7 7 8 8 7
9 8 8 8 11 13 10 9 6 3 3 5 4 4 4 4 6 6 8 13 14 15 14 15 15 14 13 13 11 6 9 1 3 7 15 4 8 6 5 6 6 6 5
9 9 9 7 7 11 9 8 6 1 5 5 6 9 9 9 10 10 12 13 17 15 14 15 17 17 17 18 18 18 11 9 3 3 14 6 9 8 3 6 7 6 5
Wind_Direction
123 123 118 109 101 90 29 357 359 345 317 303 316 312 277 281 278 278 268 262 250 247 249 251 262 276 286 290 274 263 254 250 241 236 221 215 222 231 237 237 232 234 226
116 128 134 135 152 340 341 333 318 310 306 313 309 294 291 292 275 274 275 271 251 240 242 260 267 272 279 281 281 272 261 249 242 236 224 221 226 235 238 236 232 232 222
96 99 97 79 15 335 316 312 310 312 309 304 302 301 296 288 286 285 274 269 267 262 257 261 270 282 287 279 280 278 266 258 247 237 229 228 233 240 239 234 233 226 225
75 75 74 56 28 359 346 325 308 307 315 317 307 298 290 285 283 282 278 273 273 270 274 273 275 278 282 286 282 273 273 263 259 246 241 239 244 244 241 234 231 226 223
64 64 63 50 37 38 35 25 6 335 332 333 330 323 308 288 276 276 274 274 277 277 285 285 279 275 276 279 283 283 273 272 268 261 251 246 244 247 242 232 231 229 229
63 53 48 39 22 6 5 10 9 354 343 341 326 317 317 303 291 283 275 270 269 271 283 290 284 276 277 282 277 285 285 275 270 271 261 256 249 243 238 232 230 232 228
57 50 42 33 30 24 30 16 359 349 346 351 338 330 325 338 99 21 37 330 270 267 269 294 307 277 282 271 271 287 291 289 290 279 274 266 260 252 244 235 232 232 232
58 57 52 47 38 34 31 22 18 3 338 2 352 318 341 339 322 341 12 26 37 321 317 334 353 278 307 279 270 284 295 292 291 296 299 293 273 264 253 243 234 231 231
60 54 45 42 39 32 35 27 18 14 349 329 350 310 346 304 331 294 336 8 353 343 342 340 339 336 297 301 301 295 290 289 293 296 297 295 296 291 269 252 231 237 232
58 50 42 45 39 28 22 17 11 3 348 338 334 285 329 295 301 318 318 316 327 333 334 330 331 321 310 298 296 291 302 309 304 305 301 294 292 292 291 277 264 243 240
67 37 23 15 7 2 354 349 348 353 355 339 341 327 332 324 296 247 291 336 319 320 316 318 324 319 311 305 300 294 294 299 304 310 312 305 298 293 290 290 283 279 276
294 13 339 340 346 344 346 344 334 321 330 334 337 333 324 315 324 316 314 315 301 319 308 314 317 321 313 304 294 288 290 296 304 309 315 311 299 300 299 295 291 290 285
40 346 323 327 330 332 329 326 322 313 309 301 301 300 300 290 293 287 292 290 281 289 299 305 312 317 333 351 338 303 293 298 304 310 313 313 307 296 294 293 290 290 290
271 318 315 315 315 318 320 319 313 306 301 296 292 287 292 294 294 280 263 281 287 266 273 281 304 287 302 324 332 326 317 311 312 314 319 315 311 306 303 297 294 289 290
289 311 308 307 313 319 324 322 318 316 310 303 291 285 285 290 289 284 278 276 273 288 281 271 261 281 306 312 316 310 313 314 321 316 321 326 327 317 307 303 302 304 308
316 314 313 320 326 324 319 313 314 316 314 306 294 285 284 286 286 286 284 284 276 259 274 286 282 295 304 307 311 308 303 302 304 314 314 316 313 313 312 303 292 289 296
336 339 337 333 330 328 323 312 310 312 311 304 298 290 285 287 287 285 284 284 280 267 256 277 287 304 305 309 310 306 301 298 306 314 323 315 321 325 333 327 316 296 288
335 332 333 327 323 326 323 315 311 313 313 310 303 296 292 296 288 290 285 285 286 286 267 265 293 302 303 307 312 310 309 311 321 319 316 321 349 349 342 324 324 350 301
359 337 323 328 333 337 329 327 327 325 316 305 300 298 295 309 302 295 292 286 285 286 279 282 276 284 294 298 300 305 309 321 317 324 313 332 39 39 4 354 340 345 25
348 348 345 341 338 336 331 333 334 326 317 313 306 299 296 309 329 325 330 323 312 299 292 284 277 278 277 300 317 321 324 333 345 350 12 33 33 17 14 16 10 14 22
348 347 339 334 335 333 336 338 326 322 330 328 322 328 337 339 28 17 15 358 344 321 313 312 292 308 359 7 11 341 322 347 355 3 350 334 355 7 19 25 18 33 39
343 336 326 334 336 340 339 330 320 325 340 348 347 5 13 25 46 39 47 48 38 21 14 6 18 33 24 12 3 12 27 22 18 19 356 343 343 341 353 14 24 20 34
341 324 326 337 344 341 340 331 328 332 356 18 16 16 35 46 50 64 76 76 69 61 66 75 66 53 34 26 34 48 57 61 48 7 15 32 29 37 42 52 44 40 40
324 315 326 345 344 342 346 340 341 351 36 35 35 39 50 60 55 73 91 82 74 68 66 72 70 63 59 60 64 66 78 96 79 46 36 64 37 40 34 38 40 37 34
318 313 320 331 350 355 357 340 331 335 46 35 34 46 43 78 81 97 101 91 83 75 77 82 81 76 69 59 53 63 62 113 72 41 26 29 16 359 10 24 27 27 36
323 323 317 312 351 2 0 353 349 71 69 62 80 82 70 83 90 92 94 96 89 80 86 88 80 73 66 63 58 53 54 66 70 52 17 36 12 11 2 28 27 37 48